Estación de Río Bueno

Ultimos registro cada 15 minutos 69
Estación Fecha / Hora Temperatura Humedad Lluvia Velocidad Dirección Radiación Presion
69 Río Bueno 04-05-2026 17:00 12,1 90,3 0 0 355 26,9 1010,4
68 Río Bueno 04-05-2026 16:45 12,2 89,8 0 0,3 352 30,6 1010,1
67 Río Bueno 04-05-2026 16:30 12,2 89,1 0 0,7 350 26,9 1010
66 Río Bueno 04-05-2026 16:15 12,3 88,5 0 1 338 40,6 1009,8
65 Río Bueno 04-05-2026 16:00 12,9 86,9 0 1 341 35,6 1009,9
64 Río Bueno 04-05-2026 15:45 13,1 86,3 0 1 3 30,6 1009,8
63 Río Bueno 04-05-2026 15:30 13,2 87,4 0 1 4 45,6 1009,7
62 Río Bueno 04-05-2026 15:15 13,2 89,2 0 1 10 71,9 1009,4
61 Río Bueno 04-05-2026 15:00 13,1 91,7 1 1 15 90,6 1009,1
60 Río Bueno 04-05-2026 14:45 12,8 92,7 0,4 0,7 331 86,9 1009,5
59 Río Bueno 04-05-2026 14:30 12,9 91,6 0,4 1 4 83,1 1009,3
58 Río Bueno 04-05-2026 14:15 12,9 90,7 0,4 1 8 89,4 1009,2
57 Río Bueno 04-05-2026 14:00 13,2 89 0 1 357 73,1 1009,4
56 Río Bueno 04-05-2026 13:45 13,3 88,5 0 0,7 8 65,6 1009,5
55 Río Bueno 04-05-2026 13:30 13,1 87,1 0 1 14 45,6 1009,5
54 Río Bueno 04-05-2026 13:15 12,8 88,3 0 1,3 21 49,4 1009,6
53 Río Bueno 04-05-2026 13:00 13 87,7 0 1,3 21 119,4 1009,6
52 Río Bueno 04-05-2026 12:45 12,8 87,8 0 1,3 20 111,9 1009,9
51 Río Bueno 04-05-2026 12:30 12,5 87,5 0 1,3 25 99,4 1010
50 Río Bueno 04-05-2026 12:15 12,5 88,1 0 1,3 24 53,1 1010,3
49 Río Bueno 04-05-2026 12:00 12,6 87,3 0 1,3 25 74,4 1010,2
48 Río Bueno 04-05-2026 11:45 12,5 86,6 0 0,7 31 71,9 1010,3
47 Río Bueno 04-05-2026 11:30 12,4 87,6 0 1 24 71,9 1010,3
46 Río Bueno 04-05-2026 11:15 12 89,3 0 1 29 131,9 1010,2
45 Río Bueno 04-05-2026 11:00 11,5 89,3 0 0,7 31 56,9 1010,3
44 Río Bueno 04-05-2026 10:45 11,4 89,2 0 1 31 54,4 1010,6
43 Río Bueno 04-05-2026 10:30 11,2 89,9 0 1 45 20,6 1010,6
42 Río Bueno 04-05-2026 10:15 11,1 90 0 1 41 34,4 1010,7
41 Río Bueno 04-05-2026 10:00 11 90,3 0 1 39 33,1 1010,7
40 Río Bueno 04-05-2026 09:45 10,9 90,5 0 1 45 38,1 1010,5
39 Río Bueno 04-05-2026 09:30 10,8 90,9 0 1 44 35,6 1010,5
38 Río Bueno 04-05-2026 09:15 10,7 90,9 0 1 42 39,4 1010,7
37 Río Bueno 04-05-2026 09:00 10,6 91,6 0 1 45 23,1 1010,7
36 Río Bueno 04-05-2026 08:45 10,6 91,7 0 1 39 14,4 1010,9
35 Río Bueno 04-05-2026 08:30 10,5 92,1 0 0,7 28 10,6 1010,7
34 Río Bueno 04-05-2026 08:15 10,4 92,2 0 1 27 5,6 1010,8
33 Río Bueno 04-05-2026 08:00 10,4 92,4 0 1 24 1,9 1010,5
32 Río Bueno 04-05-2026 07:45 10,3 92,9 0 1 21 0,6 1010,4
31 Río Bueno 04-05-2026 07:30 10,3 93,3 0 1 32 0,6 1010,5
30 Río Bueno 04-05-2026 07:15 10,3 92,4 0 0,7 34 0,6 1010,5
29 Río Bueno 04-05-2026 07:00 10,3 91,9 0 0,7 28 0,6 1010,6
28 Río Bueno 04-05-2026 06:45 10,4 91,6 0 1 25 0,6 1010,4
27 Río Bueno 04-05-2026 06:30 10,3 92,2 0 1 21 0,6 1010,2
26 Río Bueno 04-05-2026 06:15 10,3 92,4 0 1 22 0,6 1010,2
25 Río Bueno 04-05-2026 06:00 10,2 93 0 1 20 0,6 1010,4
24 Río Bueno 04-05-2026 05:45 10,2 93,5 0 1,3 21 0,6 1010,3
23 Río Bueno 04-05-2026 05:30 10,2 94,1 0 1,3 28 0,6 1010,3
22 Río Bueno 04-05-2026 05:15 10,1 94,3 0 0,7 27 0,6 1010,6
21 Río Bueno 04-05-2026 05:00 10 93,9 0,2 0,7 49 0,6 1010,8
20 Río Bueno 04-05-2026 04:45 10,1 93,2 0,2 0,7 42 0,6 1010,9
19 Río Bueno 04-05-2026 04:30 10,1 92,8 0 1 35 0,6 1010,9
18 Río Bueno 04-05-2026 04:15 10 93,3 0 0,7 44 0,6 1010,7
17 Río Bueno 04-05-2026 04:00 9,9 93,5 0 0,7 38 0,6 1011
16 Río Bueno 04-05-2026 03:45 9,8 93,7 0 0,3 31 0,6 1011,3
15 Río Bueno 04-05-2026 03:30 9,8 93,5 0 0,3 31 0,6 1011,3
14 Río Bueno 04-05-2026 03:15 10,1 93,5 0 1 29 0,6 1011,5
13 Río Bueno 04-05-2026 03:00 10,1 94,5 0 0,3 21 0,6 1011,5
12 Río Bueno 04-05-2026 02:45 9,9 95,4 0 0,3 41 0,6 1011,6
11 Río Bueno 04-05-2026 02:30 9,8 95,6 0 0,3 51 0,6 1011,9
10 Río Bueno 04-05-2026 02:15 9,4 95,4 0 0 55 0,6 1012
9 Río Bueno 04-05-2026 02:00 9,6 95,4 0 0,3 73 0,6 1012,1
8 Río Bueno 04-05-2026 01:45 9,3 95,2 0 0 104 0,6 1012,1
7 Río Bueno 04-05-2026 01:30 9,8 95,1 0 0,3 42 0,6 1012,3
6 Río Bueno 04-05-2026 01:15 9,8 95 0,2 0,3 41 0,6 1012,4
5 Río Bueno 04-05-2026 01:00 9,7 95 0 0 37 0,6 1012,4
4 Río Bueno 04-05-2026 00:45 9,5 94,8 0 0 37 0,6 1012,5
3 Río Bueno 04-05-2026 00:30 9,4 94,6 0 0 37 0,6 1012,6
2 Río Bueno 04-05-2026 00:15 9,3 94,4 0 0 37 0,6 1012,6
1 Río Bueno 04-05-2026 00:00 9,5 94,1 0 0 37 0,6 1012,6